Temp
9 9 8 8 7 8 9 8 5 4 6 7 8 8 13 14 14 14 14 13 13 13 12 12 12 12 13 13 13 12 12 8 9 12 13 12 10 8 8 10 9 10 9 7
9 9 8 7 8 9 8 5 5 6 5 7 8 12 13 14 13 13 13 13 13 13 11 11 13 12 13 13 13 11 11 10 10 12 12 12 9 9 8 8 9 8 9 7
9 7 7 7 8 9 7 5 5 6 6 10 12 12 12 12 14 14 14 13 13 13 12 12 12 13 13 12 13 10 11 9 9 10 9 10 9 8 8 8 8 8 6 6
9 7 7 8 8 9 10 7 8 9 7 9 13 13 13 12 12 13 14 12 13 12 10 12 13 13 13 13 14 12 13 9 12 14 12 12 10 9 7 6 6 6 6 6
6 6 7 8 8 10 9 7 10 11 11 13 13 12 12 12 12 12 13 12 13 11 9 11 10 12 13 13 14 14 14 12 13 13 13 12 10 10 9 7 7 6 7 7
6 6 6 7 8 10 9 10 13 12 13 13 12 12 13 13 13 13 14 14 12 11 13 14 14 14 13 13 12 12 12 12 12 12 14 12 9 7 9 9 8 8 7 7
5 5 6 6 8 10 10 11 13 10 11 12 12 14 14 14 13 13 14 14 13 13 13 13 13 13 13 13 14 14 12 12 12 11 12 9 9 10 10 10 10 11 11 11
4 4 6 6 9 9 10 12 11 11 11 13 13 14 15 14 13 13 13 13 13 13 13 12 12 12 13 14 14 14 14 13 11 11 11 10 12 12 9 10 8 12 12 12
4 4 6 8 8 9 9 12 12 13 10 13 15 14 14 12 13 12 13 13 12 12 12 12 11 13 13 13 14 15 14 13 11 11 10 10 11 13 14 12 8 11 12 12
4 5 7 8 8 10 10 11 12 13 12 15 15 14 13 14 13 12 12 12 11 12 12 12 13 12 13 12 12 12 12 12 10 10 10 11 12 13 13 9 9 12 12 12
4 5 6 7 9 9 10 9 12 13 13 14 15 15 14 14 14 12 12 12 12 12 11 12 12 12 12 11 13 12 11 10 11 11 10 9 13 12 10 11 12 12 12 11
4 4 6 7 9 9 10 11 12 14 13 13 11 11 11 13 15 14 12 12 11 8 10 10 12 12 11 11 11 13 11 12 11 11 10 12 13 13 13 13 12 12 12 11
4 5 6 7 9 10 10 11 10 11 10 10 11 11 10 11 11 12 12 13 12 11 12 11 12 11 12 11 12 12 13 14 11 11 12 13 13 14 13 13 13 13 12 11
6 6 7 7 9 10 10 11 11 11 12 10 9 10 10 10 11 12 12 12 12 12 12 11 11 11 13 12 13 13 14 14 13 13 13 13 13 13 13 13 13 13 12 12
7 7 7 8 9 10 10 10 11 12 12 10 9 11 10 10 11 11 11 11 12 12 11 11 11 13 12 12 13 12 14 13 12 12 14 13 13 13 13 12 12 12 12 11
6 7 7 8 8 9 10 8 10 11 11 11 10 10 10 10 11 11 11 12 12 13 12 12 13 13 11 11 12 14 15 15 15 14 14 14 13 13 13 12 12 12 11 10
6 6 7 8 8 8 10 9 10 10 11 12 10 10 11 10 10 11 11 11 12 12 12 11 12 13 11 11 10 13 14 15 15 15 14 13 13 12 13 12 12 11 11 11
6 6 7 8 8 8 7 6 8 9 12 13 11 9 10 10 10 10 12 11 11 11 11 12 12 12 12 9 12 14 14 14 14 14 14 13 13 13 13 12 12 11 10 10
6 7 8 8 9 8 7 7 8 9 11 10 11 9 9 11 11 11 11 11 9 12 11 11 12 11 10 11 12 13 13 13 13 13 13 13 13 12 12 12 11 10 9 8
6 7 7 4 7 7 7 9 8 9 11 11 11 13 9 10 11 10 10 10 10 10 11 12 10 11 12 13 14 14 13 13 13 12 12 12 12 11 11 10 9 8 7 6
6 6 5 6 6 7 9 6 7 9 9 11 12 13 10 12 10 10 11 10 11 9 11 10 11 11 12 13 11 12 12 13 13 13 13 12 11 10 10 9 8 7 6 5
8 7 7 7 8 8 7 7 9 9 11 11 11 12 12 12 12 11 11 10 10 9 11 10 9 12 13 12 11 12 12 12 12 12 12 11 10 9 8 8 7 6 3 2
7 9 8 7 7 5 6 5 8 9 11 11 12 11 11 11 11 10 10 8 8 11 9 8 10 13 13 12 12 12 12 11 11 11 11 10 9 8 7 7 5 3 3 0
9 6 4 7 5 8 10 11 11 11 11 11 11 10 10 10 9 8 8 9 10 8 8 10 11 13 13 12 12 11 11 10 10 10 10 9 8 7 6 4 3 2 1 -0
8 8 6 7 10 10 10 11 10 11 11 11 10 10 10 9 6 9 9 8 8 9 10 11 12 13 12 12 12 11 11 6 8 9 9 7 6 5 4 3 2 1 1 -0
8 8 7 8 8 6 7 9 10 11 11 11 11 10 9 8 9 9 8 9 9 10 12 11 12 12 12 12 11 11 10 10 9 9 8 8 5 4 4 3 1 1 1 -0
7 6 8 8 8 7 7 9 10 12 10 9 10 7 8 10 9 9 10 10 10 11 11 11 12 12 11 11 10 8 8 8 8 9 8 8 8 5 4 4 4 2 0 -0
Height
694 710 725 736 750 762 776 788 812 823 825 831 826 824 804 803 810 812 812 816 815 817 824 824 827 828 828 829 827 825 823 841 832 809 807 813 823 821 813 790 805 794 806 839
694 709 723 733 747 758 769 800 817 827 827 821 821 804 802 805 811 811 813 815 819 821 829 834 826 829 830 830 827 832 830 829 821 805 810 813 825 822 820 815 808 814 812 837
692 709 718 732 747 755 762 793 817 826 825 809 802 801 803 807 807 810 811 817 820 823 825 827 828 822 828 831 828 834 831 836 836 826 830 826 832 835 833 830 825 832 841 842
691 707 719 734 745 752 758 782 792 791 806 803 796 798 801 804 808 811 813 820 819 822 832 823 823 821 824 827 822 825 822 832 812 806 813 816 824 834 841 844 848 847 849 844
695 707 721 734 745 749 761 777 774 780 784 785 791 797 801 802 806 811 814 819 820 828 840 830 835 829 822 823 821 817 814 816 808 808 806 814 825 824 835 842 845 848 844 840
692 710 725 734 743 748 760 767 765 769 775 781 788 794 795 797 804 812 811 812 821 829 825 823 824 825 826 827 826 824 822 818 813 810 796 810 826 843 831 835 841 839 840 836
697 714 726 736 741 749 755 759 761 771 778 779 784 785 788 796 807 809 811 815 817 824 827 829 829 827 824 823 817 817 822 817 813 815 810 826 833 830 828 829 827 824 822 820
704 715 730 737 744 750 754 759 765 768 773 774 780 782 787 799 807 810 815 817 821 826 826 826 822 823 821 814 813 813 816 817 821 821 814 824 819 820 831 827 836 821 817 817
705 721 731 741 748 753 758 762 765 763 771 773 775 783 790 803 806 812 814 822 826 826 823 820 821 810 810 813 811 807 811 816 823 823 821 820 823 816 812 818 835 822 816 816
711 723 735 743 750 755 759 762 764 763 765 770 776 784 793 800 805 810 817 822 826 825 820 819 810 812 814 815 817 817 818 819 826 826 827 818 818 815 810 828 835 818 816 818
715 728 738 745 752 757 761 764 762 763 764 775 782 789 794 796 799 809 813 820 820 820 823 818 815 813 819 823 814 819 826 828 818 821 827 828 817 816 824 823 817 816 816 818
722 732 741 748 754 760 763 763 764 766 772 783 790 795 798 800 798 802 813 813 817 829 825 828 817 819 822 821 819 815 821 819 823 824 825 819 815 814 814 814 815 816 817 818
727 735 744 751 758 761 764 764 767 774 785 796 799 800 805 805 805 806 810 813 816 822 822 823 820 822 815 818 812 811 808 807 819 821 812 810 810 810 815 813 814 813 816 818
731 740 747 755 760 763 765 768 774 778 783 791 806 807 808 810 810 810 810 811 817 821 821 823 821 819 813 811 806 809 807 805 808 808 805 806 810 811 811 812 814 813 815 817
735 743 751 757 762 764 767 772 777 777 782 788 803 806 811 813 813 814 814 816 819 819 821 821 819 811 814 812 810 808 801 801 805 807 802 806 805 807 809 812 812 812 814 817
741 748 754 759 762 765 769 778 780 780 784 790 799 807 811 814 815 816 816 817 818 817 816 815 812 813 819 815 804 795 794 796 797 800 800 802 806 808 807 811 812 813 817 817
746 752 756 761 764 768 771 776 780 782 784 787 797 804 811 814 816 817 817 819 818 819 815 816 813 810 817 813 810 801 797 795 794 797 800 803 804 806 809 811 812 813 813 813
750 755 758 763 768 772 778 782 782 783 783 783 790 803 810 813 813 815 816 817 818 817 817 813 812 809 810 813 798 795 794 794 794 794 797 800 802 805 807 808 810 812 813 815
753 757 763 768 773 778 784 785 786 787 790 788 787 799 804 809 808 810 814 814 818 813 813 810 809 805 808 802 798 795 795 797 796 797 798 798 801 803 806 808 811 815 817 818
756 762 769 780 781 784 786 790 791 790 788 788 784 783 799 805 805 811 815 814 813 811 806 804 806 798 793 790 791 791 794 796 797 799 799 799 801 804 806 810 814 817 819 820
758 767 776 781 784 785 786 793 792 787 789 784 780 780 794 799 802 807 808 811 806 809 799 804 794 786 786 788 794 795 796 795 795 797 798 801 804 806 809 812 816 818 819 820
760 767 777 782 782 782 787 788 782 779 773 778 778 781 790 795 798 802 805 807 806 808 801 805 801 782 782 788 794 794 795 795 795 797 799 802 805 808 811 813 815 817 820 820
766 768 773 776 782 789 782 791 777 773 770 775 775 784 790 799 799 802 806 809 811 800 806 804 791 779 783 788 791 793 794 797 798 799 801 803 806 808 811 812 814 816 818 819
761 767 779 771 780 770 762 755 756 763 771 772 778 786 792 797 801 807 811 805 800 805 802 788 780 779 783 786 790 792 795 797 799 799 801 802 804 806 808 810 811 813 814 816
761 761 767 767 759 760 762 762 764 767 771 776 782 787 792 796 809 801 802 806 804 794 783 777 777 779 783 787 789 792 793 796 799 800 800 800 801 803 804 806 808 810 811 812
762 762 766 762 765 773 771 766 768 769 772 778 782 784 789 795 792 794 798 793 788 780 773 776 779 782 784 786 789 791 793 794 795 796 797 797 798 799 800 802 803 805 807 808
763 766 764 764 765 771 774 768 769 769 773 778 775 787 785 781 783 786 781 778 775 772 776 779 781 783 785 787 789 791 793 793 794 793 794 794 793 794 796 798 800 801 803 804
Wind_Speed
64 63 63 62 60 48 24 8 4 12 16 4 1 3 6 9 12 6 5 7 5 5 6 4 3 3 3 7 7 7 7 1 6 1 15 16 19 15 9 2 7 11 8 5
67 65 67 65 60 44 20 4 4 11 6 4 5 8 11 10 13 9 7 5 5 8 5 3 4 2 6 4 6 6 5 2 5 4 3 14 13 20 20 8 4 18 6 4
68 71 69 68 56 37 17 5 5 4 6 8 11 13 12 14 11 8 7 8 8 8 7 6 3 4 3 1 3 4 4 2 3 3 3 6 6 14 17 14 7 8 9 8
70 71 69 67 45 29 16 3 5 8 8 9 13 11 15 17 10 6 9 7 8 7 3 7 5 2 5 8 5 7 6 5 5 0 9 10 11 11 11 11 9 5 6 6
73 68 67 61 40 31 10 5 4 8 11 15 17 9 14 17 12 13 12 10 9 6 4 2 5 2 5 4 5 5 7 5 11 3 9 12 12 10 10 7 5 3 1 5
69 65 63 53 38 23 6 7 6 6 11 17 13 10 17 17 15 10 10 12 10 8 7 6 2 4 4 5 4 4 5 5 7 4 8 14 6 3 6 6 3 1 5 4
66 64 63 45 33 19 9 9 7 5 11 12 11 19 17 19 13 10 11 10 8 6 3 2 5 7 7 7 5 6 3 7 4 6 11 2 1 6 3 4 5 4 3 8
63 66 52 36 24 13 9 14 5 3 10 12 16 20 18 16 10 13 12 7 7 4 5 6 6 6 6 11 5 1 3 5 3 4 5 10 5 5 0 2 2 8 9 10
62 62 46 31 17 11 12 10 8 3 9 10 22 15 18 12 12 8 10 6 4 4 3 3 4 3 1 3 6 4 5 4 3 4 4 1 5 9 7 3 2 11 11 11
61 55 44 26 15 18 15 7 10 8 4 12 18 12 14 12 10 7 10 8 5 6 3 5 3 3 0 2 3 2 3 2 2 2 2 3 6 10 13 3 5 9 9 12
56 52 44 25 24 20 16 5 10 7 7 11 17 14 15 11 8 7 8 5 2 5 1 2 1 2 2 2 1 2 2 2 1 2 2 3 6 6 6 4 8 10 9 9
45 43 41 23 20 16 16 14 10 19 7 12 17 16 12 6 6 6 9 3 7 3 1 2 2 2 2 3 3 6 4 4 1 2 2 4 10 2 6 5 5 7 5 9
41 42 36 22 22 18 17 21 24 22 9 8 6 7 6 9 10 8 5 4 4 5 3 1 1 3 3 3 6 4 6 6 2 2 5 8 6 3 3 7 9 6 7 7
38 36 30 25 24 17 24 22 16 16 8 6 4 8 7 5 5 4 4 14 6 8 4 2 3 4 5 5 5 4 5 4 7 7 8 3 8 2 3 7 9 5 5 7
36 33 31 27 24 21 21 15 7 5 5 3 7 11 7 7 8 9 11 12 7 4 3 3 4 3 2 6 7 7 10 11 7 6 4 4 4 6 7 6 7 6 5 7
36 34 32 31 30 28 17 3 4 6 25 5 5 8 10 8 8 7 7 5 3 2 3 3 3 2 1 4 6 10 3 3 7 6 6 4 2 7 5 2 5 6 8 10
36 35 33 29 23 8 3 4 9 9 3 3 5 5 8 11 8 5 4 4 3 3 4 3 6 4 5 5 10 13 11 11 8 5 5 5 7 2 3 4 6 5 8 11
36 32 28 24 20 15 11 7 10 5 2 3 4 4 6 13 5 5 5 3 4 3 4 4 4 3 4 4 7 4 4 4 5 5 3 5 5 3 6 1 4 8 10 14
33 29 24 16 10 4 6 13 10 7 2 2 3 7 5 9 6 3 4 3 2 3 4 7 5 6 6 7 8 6 6 3 3 3 4 4 2 3 4 4 7 8 9 12
29 17 8 3 5 21 12 4 2 2 1 1 3 6 5 9 7 4 4 3 3 3 6 3 3 7 15 14 12 9 5 7 6 6 5 6 3 6 4 5 7 8 8 10
4 4 3 15 15 3 3 2 3 3 3 4 3 5 8 7 7 6 5 3 2 2 3 3 3 3 6 5 3 2 4 7 6 6 1 4 2 3 3 3 3 4 6 7
8 14 15 7 3 2 3 3 4 4 5 6 8 10 10 5 3 2 3 2 2 4 2 2 3 3 7 7 4 4 2 2 3 1 2 5 3 2 1 0 1 2 2 2
13 4 4 4 2 3 6 7 3 4 5 7 8 10 6 3 3 2 3 2 3 2 2 3 4 4 6 5 6 5 4 3 3 3 3 3 4 5 4 3 3 3 1 2
3 4 4 4 3 4 3 3 6 6 7 9 8 6 3 3 3 3 2 4 3 3 4 4 3 6 6 6 4 5 5 3 4 5 6 6 6 7 9 8 8 7 6 5
1 2 3 3 4 2 4 5 6 7 9 9 8 5 4 4 2 3 4 4 4 5 4 3 2 6 6 5 5 6 4 5 6 7 7 4 12 13 14 12 10 9 9 8
1 2 2 2 5 3 2 4 5 7 8 8 6 4 4 4 4 6 5 4 5 3 3 5 3 3 3 3 4 4 4 6 8 10 10 11 13 16 13 11 13 13 12 10
2 2 0 4 5 6 5 5 6 11 8 6 3 4 5 4 4 4 5 3 1 3 4 3 3 2 3 3 2 3 3 6 8 9 10 12 11 12 10 10 12 13 10 11
Wind_Direction
168 166 161 154 151 145 143 100 90 162 142 158 204 215 166 161 155 133 126 133 133 144 159 126 102 85 44 17 320 359 9 99 297 329 67 58 34 17 348 318 62 77 92 78
164 167 156 152 152 150 121 84 92 168 203 172 194 206 154 157 162 145 151 126 134 138 166 113 168 122 59 1 25 1 294 338 317 91 127 41 37 22 23 13 64 35 57 71
162 156 153 154 153 148 106 116 126 176 207 257 197 160 161 152 158 124 137 138 147 159 168 155 190 156 137 83 345 196 263 252 245 336 97 59 45 42 29 29 36 59 37 18
162 155 155 158 153 154 117 128 187 169 181 222 184 165 163 155 141 143 149 160 173 175 134 172 187 104 182 207 230 220 218 240 274 334 125 100 82 57 46 56 34 48 29 345
154 153 156 154 147 140 97 149 161 176 165 171 169 163 167 161 149 154 170 169 146 142 166 232 51 184 256 79 309 340 353 312 308 351 164 106 76 67 67 61 43 69 321 295
151 154 157 153 150 139 113 213 168 149 162 166 161 176 156 161 145 174 171 162 152 161 183 196 166 297 337 304 290 332 333 316 315 277 200 165 75 5 78 103 135 350 6 282
152 158 156 156 145 130 128 185 123 117 160 162 161 166 157 147 150 162 146 151 170 117 109 192 234 241 238 237 199 247 338 343 341 298 333 224 137 180 213 83 97 14 26 3
156 158 156 150 144 140 132 138 121 189 152 155 161 164 151 147 136 156 149 158 74 138 181 213 193 198 209 217 148 63 37 4 327 320 360 110 51 114 174 306 23 347 13 16
154 156 150 145 143 177 179 167 186 194 132 177 161 154 150 147 150 141 132 102 142 176 242 248 252 179 7 105 169 183 129 41 356 349 314 63 32 350 359 127 211 310 3 8
155 151 147 143 147 145 129 135 168 131 114 149 153 160 151 173 150 149 152 152 164 221 252 226 243 135 353 231 254 336 315 289 246 342 309 106 17 349 314 246 346 340 12 8
152 159 163 160 143 134 136 124 118 112 114 130 148 149 170 162 168 150 156 138 211 186 246 291 110 293 110 258 262 266 261 299 238 254 243 224 347 4 19 328 322 346 2 6
158 165 167 159 151 135 130 111 108 116 88 102 82 64 43 56 212 144 165 89 137 135 146 253 264 228 139 288 272 197 242 220 315 254 339 260 264 292 303 286 297 298 344 0
162 169 172 170 163 150 131 107 99 97 101 94 118 120 64 55 49 85 154 159 109 169 181 182 324 274 319 237 245 195 248 180 216 278 243 246 276 260 356 337 334 2 357 327
166 169 173 169 163 137 132 127 133 131 162 117 113 124 103 85 77 64 39 114 132 139 180 199 220 244 192 266 312 297 278 217 233 266 293 163 247 161 342 354 320 295 303 350
156 158 157 155 151 136 120 112 94 149 128 116 140 124 127 132 123 112 110 122 150 172 178 221 240 239 304 259 260 263 242 237 226 238 279 255 320 16 351 330 309 338 339 326
139 144 147 142 133 128 117 61 50 76 121 119 141 87 151 148 146 141 142 146 251 221 248 250 231 164 242 277 266 249 311 308 291 289 294 335 299 280 277 9 320 348 3 309
136 136 137 139 139 140 74 118 138 143 143 90 115 123 162 160 161 168 179 160 265 254 277 232 266 262 185 260 264 278 282 279 274 236 266 271 273 48 344 8 344 317 295 324
127 119 112 108 102 90 72 86 130 135 161 133 127 104 152 177 171 173 211 187 228 221 244 261 239 256 210 257 265 279 291 313 314 307 247 256 276 1 287 234 319 347 354 352
123 113 108 97 105 75 110 102 81 63 90 133 136 154 163 176 173 163 168 219 226 243 253 247 255 230 221 236 247 285 315 327 302 244 250 263 259 256 287 7 8 359 345 350
121 112 81 59 97 122 113 83 43 355 133 157 204 156 133 178 176 159 158 188 246 205 215 225 254 258 251 248 249 258 299 268 234 270 258 248 279 304 38 17 22 355 351 348
115 66 71 126 149 194 108 143 169 153 176 186 219 152 136 205 159 172 165 199 237 248 171 226 244 231 199 191 112 262 264 268 216 247 279 58 38 27 35 33 20 350 349 353
98 123 129 149 196 119 138 166 168 202 186 170 169 146 152 150 167 156 152 220 188 244 82 251 263 226 152 159 188 210 207 212 232 185 222 153 169 137 152 230 308 8 19 7
129 102 132 151 159 143 189 170 190 181 143 164 158 145 126 107 209 101 183 243 212 299 208 229 229 164 153 175 159 177 166 169 202 192 183 184 193 183 205 223 162 178 200 238
143 134 132 195 164 211 194 183 158 121 148 161 144 121 138 104 157 174 173 211 225 227 220 239 201 194 164 168 167 193 191 160 242 228 230 219 214 193 198 208 208 210 220 231
143 127 152 173 98 103 93 71 107 139 155 140 144 146 130 150 129 218 188 191 233 222 232 155 170 131 159 186 184 207 210 152 197 244 262 232 197 199 211 218 223 224 230 225
187 139 121 126 134 96 80 151 142 151 143 141 173 161 155 185 181 192 198 207 222 218 239 125 127 154 184 187 190 192 222 242 224 230 238 244 212 214 218 224 217 223 224 232
180 152 221 166 174 170 185 192 164 163 153 170 171 163 183 194 200 203 192 218 274 104 99 108 161 184 214 222 146 127 242 255 260 271 280 285 287 216 205 234 222 213 225 242